Voltar ao catálogo

HAIYANG 2C

AtivoCiênciaLEO
NORAD 46469·PAYLOAD·🇨🇳 China

Lançado Sep 21, 2020 de Jiuquan Satellite Launch Center

Loading…

Próximas Passagens (próximas 24 horas)

TLE

AtualizadoSource: CelesTrak SupGP

Época: Sep 14, 2026, 00:00 UTC

1 46469C 20066A   26257.00000000 -.00000079  00000+0 -71303-4 0  2577
2 46469  66.0001 354.1584 0004995 249.2917  30.7344 13.83374311    11

Acompanhe HAIYANG 2C em tempo real com AllMySat

Download on the App Store